Lucknow / Amausi, India

9:10 PM IST on January 22, 2017 (GMT +0530)
Lucknow

Weather History for VILK - February, 2014

Change the Weather History Date:

Saturday, February 15, 2014

  Actual Average Record
Temperature  
Mean Temperature 54 °F -  
Max Temperature 59 °F 80 °F 87 °F (2006)
Min Temperature 48 °F 58 °F 44 °F (2008)
Degree Days  
Heating Degree Days 12    
Growing Degree Days 4 (Base 50)    
Moisture  
Dew Point 56 °F    
Average Humidity 94    
Maximum Humidity 100    
Minimum Humidity 85    
Precipitation  
Precipitation 0.03 in - - ()
Sea Level Pressure  
Sea Level Pressure 29.88 in    
Wind  
Wind Speed 5 mph ()    
Max Wind Speed 12 mph    
Max Gust Speed -    
Visibility 0.6 miles    
Events Fog , Rain    
Averages and records for this station are not official NWS values.
T = Trace of Precipitation, MM = Missing Value Source: Averaged Metar Reports

Daily Weather History Graph

Daily Weather History Graph

Search for Another Location

Airport or City:

Trip Planner

Search our weather history database for the weather conditions in past years. The results will help you decide how hot, cold, wet, or windy it might be!

Date:

Astronomy

Feb. 15, 2014 Rise Set
Actual Time 6:43 AM IST 5:58 PM IST
Civil Twilight 6:19 AM IST 6:22 PM IST
Nautical Twilight 5:52 AM IST 6:49 PM IST
Astronomical Twilight 5:24 AM IST 7:16 PM IST
Moon 6:24 PM IST (2/15) 6:32 AM IST (2/15)
Length of Visible Light 12h 03m
Length of Day
11h 15m
Full, 100% of the Moon is Illuminated
Feb 15
Full
Feb 22
Last Quarter
Mar 1
New
Mar 8
First Quarter
Mar 16
Full

Hourly Weather History & Observations

Time (IST) Temp. Dew Point Humidity Pressure Visibility Wind Dir Wind Speed Gust Speed Precip Events Conditions
12:00 AM 57.2 °F 55.4 °F 94% 29.89 in 1.2 mi East 9.2 mph - N/A   Scattered Clouds
1:00 AM 57.2 °F 55.4 °F 94% 29.86 in 1.2 mi ESE 6.9 mph - N/A   Mostly Cloudy
2:00 AM 57.2 °F 55.4 °F 94% 29.86 in 1.2 mi East 6.9 mph - N/A Rain Light Rain
2:30 AM 58 °F 55 °F 85% 29.87 in 1 mi ESE 5.8 mph - - Rain Light Rain
4:00 AM 57.2 °F 55.4 °F 94% 29.83 in 0.9 mi East 5.8 mph - N/A   Mostly Cloudy
5:00 AM 55.4 °F 55.4 °F 100% 29.80 in 0.9 mi East 4.6 mph - N/A   Mostly Cloudy
5:30 AM 55 °F 54 °F 94% 29.84 in 1 mi East 4.6 mph - -   Mist
5:30 AM 55.4 °F 53.6 °F 94% 29.80 in 0.9 mi East 4.6 mph - N/A   Scattered Clouds
6:00 AM 55.4 °F 53.6 °F 94% 29.80 in 0.9 mi ESE 4.6 mph - N/A   Scattered Clouds
6:30 AM 53.6 °F 53.6 °F 100% 29.83 in 0.9 mi SE 4.6 mph - N/A   Mostly Cloudy
7:00 AM 53.6 °F 53.6 °F 100% 29.83 in 0.6 mi ESE 8.1 mph - N/A Fog Shallow Fog
7:30 AM 55.4 °F 53.6 °F 94% 29.83 in 0.6 mi ESE 9.2 mph - N/A Fog Shallow Fog
8:00 AM 55.4 °F 53.6 °F 94% 29.86 in 0.6 mi SE 11.5 mph - N/A Fog Shallow Fog
8:30 AM 56 °F 55 °F 96% 29.91 in 1 mi SE 9.2 mph - - Fog Patches of Fog
8:30 AM 57.2 °F 55.4 °F 94% 29.86 in 0.6 mi SE 9.2 mph - N/A Fog Shallow Fog
9:00 AM 55.4 °F 53.6 °F 94% 29.89 in 0.6 mi SSE 5.8 mph - N/A Fog Shallow Fog
9:30 AM 55.4 °F 53.6 °F 94% 29.92 in 0.6 mi SE 4.6 mph - N/A Fog Shallow Fog
10:00 AM 55.4 °F 53.6 °F 94% 29.92 in 0.6 mi ESE 4.6 mph - N/A Fog Shallow Fog
10:30 AM 57.2 °F 55.4 °F 94% 29.95 in 0.6 mi SE 3.5 mph - N/A Fog Shallow Fog
11:00 AM 57.2 °F 55.4 °F 94% 29.95 in 0.6 mi ESE 4.6 mph - N/A Fog Shallow Fog
11:30 AM 58 °F 57 °F 96% 29.97 in 0 mi East 3.5 mph - - Fog Patches of Fog
12:00 PM 57.2 °F 57.2 °F 100% 29.92 in 0.4 mi East 3.5 mph - N/A   Light Drizzle
12:30 PM 59.0 °F 57.2 °F 94% 29.92 in 0.4 mi East 3.5 mph - N/A Fog Light Drizzle
1:00 PM 59.0 °F 57.2 °F 94% 29.89 in 0.4 mi NE 3.5 mph - N/A Fog Light Drizzle
2:00 PM 59.0 °F 57.2 °F 94% 29.86 in 0.6 mi ENE 3.5 mph - N/A Fog Fog
2:30 PM 59 °F 57 °F 91% 29.89 in 0 mi East 3.5 mph - - Fog Heavy Fog
2:30 PM 59.0 °F 57.2 °F 94% 29.86 in 0.6 mi ENE 3.5 mph - N/A Fog Fog
3:00 PM 59.0 °F 57.2 °F 94% 29.86 in 0.9 mi NNE 3.5 mph - N/A   Unknown
3:30 PM 59.0 °F 57.2 °F 94% 29.86 in 0.9 mi NE 3.5 mph - N/A Fog Fog
4:00 PM 59.0 °F 57.2 °F 94% 29.83 in 0.9 mi NNW 3.5 mph - N/A Fog Fog
4:30 PM 59.0 °F 57.2 °F 94% 29.86 in 0.7 mi Variable 2.3 mph - N/A   Mist
5:00 PM 59.0 °F 57.2 °F 94% 29.86 in 0.6 mi SE 3.5 mph - N/A   Mist
5:30 PM 59 °F 58 °F 94% 29.89 in 1 mi SE 3.5 mph - -   Mist
5:30 PM 59.0 °F 57.2 °F 94% 29.86 in 0.7 mi ESE 3.5 mph - N/A   Mist
6:00 PM 59.0 °F 57.2 °F 94% 29.89 in 0.6 mi South 3.5 mph - N/A   Mist
6:30 PM 59.0 °F 57.2 °F 94% 29.89 in 0.5 mi West 3.5 mph - N/A Fog Fog
7:00 PM 59.0 °F 57.2 °F 94% 29.89 in 0.5 mi Calm Calm - N/A Fog Fog
7:30 PM 59.0 °F 57.2 °F 94% 29.89 in 0.5 mi Calm Calm - N/A   Unknown
8:00 PM 59.0 °F 57.2 °F 94% 29.89 in 0.5 mi Calm Calm - N/A   Unknown
8:30 PM 59 °F 57 °F 92% 29.94 in 0 mi Calm Calm - - Fog Heavy Fog
8:30 PM 59.0 °F 57.2 °F 94% 29.92 in 0.4 mi Calm Calm - N/A Fog Fog
11:00 PM 57.2 °F 55.4 °F 94% 29.89 in 0.1 mi Variable 2.3 mph - N/A Fog Fog
11:30 PM 57 °F 56 °F 97% 29.94 in 0 mi 2.3 mph - - Fog Heavy Fog